Tracking 29034 objects as of 25-Jun-2024
HD Live streaming from Space Station
objects crossing your sky now

STARLINK-31521

Track STARLINK-31521 now!
10-day predictions
STARLINK-31521 is classified as:


NORAD ID: 59015
Int'l Code: 2024-036T
Perigee: 487.5 km
Apogee: 490.2 km
Inclination: 53.2 °
Period: 94.2 minutes
Semi major axis: 6859 km
RCS: Unknown
Launch date: February 23, 2024
Source: United States (US)
Launch site: AIR FORCE WESTERN TEST RANGE (AFWTR)
Your satellite tracking list
Your tracking list is empty




NASA's NSSDC Master Catalog

Two Line Element Set (TLE):
1 59015U 24036T   24176.90699093 -.00000436  00000-0 -30773-5 0  9990
2 59015  53.1604  90.7916 0001927 105.4253 254.6960 15.28021604 19979
Source of the keplerian elements: AFSPC